DRAGON CRS-23 DEB

Last updated on Fri Nov 19 2021 00:02:05 GMT+0000 (Coordinated Universal Time)

1 49268U 21078B 21322.29734307 .17023018 12657-4 42891-3 0 9996 2 49268 51.6150 283.5758 0006706 336.5844 174.8364 16.45561132 7700

Satellite not in orbit